z/d,0,0,50,50,100,100,200,200,300,300,400,400,500,500,750,750,1000,1000,2000,2000,3000,3000,4000,4000,4700,4700
2016.11.09-01:00,.70,93.99,.66,84.67,.81,77.44,.88,70.25,.90,73.31,.85,70.12,.70,65.84,.60,79.68,.44,73.74,.43,56.70,.20,49.20,.19,29.18,.02,90.00
2016.11.09-02:00,.60,93.22,.59,80.73,.78,76.60,.89,69.64,.91,73.21,.87,69.51,.75,64.16,.60,78.45,.44,70.82,.44,58.70,.22,50.78,.21,32.25,.03,90.00
2016.11.09-03:00,.53,98.62,.55,73.97,.76,75.36,.92,69.74,.93,73.40,.90,69.37,.80,63.47,.60,76.59,.46,66.92,.44,60.30,.23,52.60,.23,35.23,.03,90.00
2016.11.09-04:00,.50,100.50,.55,68.81,.77,75.04,.95,70.64,.96,73.56,.94,69.48,.86,63.43,.60,74.28,.47,62.63,.45,61.45,.24,54.34,.24,37.75,.04,90.00
2016.11.09-05:00,.48,96.76,.57,66.11,.77,75.34,.97,71.20,.96,72.80,.97,69.12,.91,63.43,.61,71.87,.50,59.01,.45,62.46,.24,55.79,.24,39.62,.04,90.00
2016.11.09-06:00,.50,99.71,.59,66.92,.78,76.91,.98,71.81,.97,71.78,.99,69.05,.95,64.21,.61,70.27,.53,56.95,.45,63.11,.23,55.74,.24,39.84,.04,90.00
2016.11.09-07:00,.50,97.42,.60,68.61,.77,78.63,.99,71.98,.98,70.55,1.00,69.18,.98,65.56,.60,69.44,.55,56.35,.44,63.48,.22,54.43,.23,38.92,.03,90.00
2016.11.09-08:00,.48,98.38,.58,69.82,.74,79.86,.99,71.87,.99,69.54,1.01,69.73,.99,67.58,.59,69.48,.57,57.27,.43,63.43,.21,51.59,.22,36.91,.03,90.00
2016.11.09-09:00,.44,97.08,.56,68.66,.70,79.43,.97,71.38,.98,68.61,1.00,70.48,.98,69.92,.58,70.01,.58,59.44,.41,63.17,.19,47.86,.21,34.49,.02,90.00
2016.11.09-10:00,.42,94.58,.55,66.97,.66,78.24,.95,71.44,.96,68.39,.98,71.80,.96,72.71,.56,70.14,.58,62.14,.40,62.81,.19,43.86,.20,32.32,.02,90.00
2016.11.09-11:00,.40,92.71,.56,65.81,.64,76.80,.93,72.09,.95,68.65,.96,73.30,.93,75.33,.53,68.65,.57,64.47,.39,63.00,.19,40.86,.19,31.08,.02,90.00
2016.11.09-12:00,.38,93.78,.56,64.97,.62,74.93,.92,73.06,.95,69.17,.94,74.67,.90,77.39,.52,65.54,.57,66.31,.38,64.10,.19,39.85,.19,31.49,.02,90.00
2016.11.09-13:00,.37,94.63,.55,62.96,.60,71.92,.92,74.03,.97,69.90,.94,75.99,.88,79.07,.54,62.40,.56,67.83,.37,65.61,.20,40.32,.20,32.87,.02,90.00
2016.11.09-14:00,.34,99.43,.53,59.15,.60,67.94,.92,75.19,.99,71.21,.95,77.71,.88,80.92,.57,60.84,.56,69.19,.37,66.61,.21,41.75,.20,34.97,.02,90.00
2016.11.09-15:00,.30,97.13,.55,53.88,.61,62.85,.93,76.11,1.02,72.76,.97,79.53,.88,82.73,.61,60.93,.56,70.44,.36,66.59,.23,44.26,.21,38.17,.03,90.00
2016.11.09-16:00,.33,82.79,.60,50.39,.66,58.84,.94,76.95,1.05,74.58,.97,81.30,.87,84.27,.66,62.06,.57,71.62,.36,65.38,.24,46.84,.22,41.14,.03,90.00
2016.11.09-17:00,.40,75.73,.66,50.79,.73,58.21,.95,77.90,1.06,76.56,.96,82.63,.85,84.99,.70,63.44,.58,72.50,.36,63.36,.25,49.35,.22,43.51,.04,90.00
2016.11.09-18:00,.47,77.28,.73,54.09,.80,60.33,.94,78.60,1.05,78.15,.93,82.93,.81,84.34,.73,64.69,.58,73.11,.37,61.48,.25,51.86,.21,45.12,.04,90.00
2016.11.09-19:00,.55,78.27,.78,58.68,.86,63.91,.92,78.76,1.02,79.06,.88,81.94,.76,82.23,.74,66.22,.57,73.67,.38,60.11,.24,53.85,.20,45.15,.04,90.00
2016.11.09-20:00,.58,79.76,.80,63.28,.90,67.94,.90,78.24,.98,79.27,.83,79.95,.71,79.28,.74,68.61,.56,74.65,.39,59.43,.24,54.63,.19,42.51,.04,90.00
2016.11.09-21:00,.59,85.67,.80,67.56,.91,71.93,.88,77.03,.94,78.89,.80,77.42,.68,76.21,.73,71.80,.54,76.22,.39,59.37,.22,54.05,.18,37.21,.03,90.00
2016.11.09-22:00,.60,89.08,.78,71.69,.90,75.49,.87,75.22,.91,78.09,.77,74.65,.66,73.15,.71,75.22,.51,78.05,.40,59.68,.21,52.55,.17,31.02,.03,90.00
2016.11.09-23:00,.61,92.83,.76,75.77,.88,78.46,.87,73.34,.88,77.21,.75,71.93,.64,69.97,.67,78.11,.48,79.47,.40,60.32,.21,51.07,.17,26.58,.02,90.00
2016.11.09-24:00,.61,96.72,.73,78.94,.86,80.47,.87,71.89,.87,76.59,.76,69.69,.65,66.99,.64,80.06,.45,79.82,.40,61.44,.21,50.37,.18,25.39,.02,90.00
2016.11.10-01:00,.57,97.97,.68,80.24,.83,81.41,.88,71.21,.86,76.66,.78,68.47,.68,64.99,.61,81.05,.43,78.66,.40,62.98,.21,50.38,.19,26.67,.02,90.00
2016.11.10-02:00,.50,96.28,.63,78.66,.78,81.28,.88,71.18,.86,77.31,.80,68.16,.72,64.04,.59,80.95,.42,75.69,.40,64.64,.22,51.19,.21,29.62,.03,90.00
2016.11.10-03:00,.44,91.06,.58,74.44,.75,80.42,.90,71.80,.87,78.12,.84,68.33,.77,63.83,.59,79.63,.42,71.07,.41,66.10,.23,52.87,.23,33.65,.03,90.00
2016.11.10-04:00,.45,79.65,.59,70.80,.74,79.63,.92,73.14,.88,78.54,.89,68.57,.84,64.05,.59,77.23,.44,65.49,.41,67.15,.24,54.88,.24,37.70,.04,90.00
2016.11.10-05:00,.51,72.38,.62,67.96,.74,79.29,.95,74.76,.89,78.15,.94,68.69,.90,64.62,.59,74.45,.47,60.51,.42,67.94,.25,56.68,.25,40.94,.04,90.00
2016.11.10-06:00,.56,69.97,.65,66.48,.75,79.39,.97,76.07,.90,76.85,.98,68.76,.94,65.56,.59,72.03,.51,57.38,.43,68.67,.25,57.49,.25,42.34,.04,90.00
2016.11.10-07:00,.62,69.73,.69,66.99,.75,80.11,.97,76.93,.90,75.01,1.01,69.02,.98,66.93,.60,70.44,.54,56.36,.43,69.40,.25,57.05,.25,41.84,.04,90.00
2016.11.10-08:00,.65,70.29,.71,68.64,.74,81.07,.95,77.21,.90,72.97,1.02,69.53,.99,68.71,.59,69.74,.57,57.06,.42,69.91,.24,55.34,.24,40.03,.04,90.00
2016.11.10-09:00,.67,70.60,.71,70.28,.71,81.66,.92,76.94,.89,71.14,1.01,70.45,.98,70.98,.58,70.05,.59,59.22,.40,70.10,.23,52.52,.23,37.45,.03,90.00
2016.11.10-10:00,.67,70.88,.70,71.41,.68,81.38,.88,76.18,.87,69.72,.99,71.78,.95,73.63,.56,70.71,.59,62.19,.38,70.04,.21,49.22,.22,34.87,.03,90.00
2016.11.10-11:00,.66,72.08,.70,72.58,.64,80.31,.84,75.02,.86,68.65,.97,73.25,.92,76.14,.54,70.45,.59,65.19,.36,70.02,.21,46.40,.21,33.08,.02,90.00
2016.11.10-12:00,.60,74.41,.69,74.35,.60,78.63,.81,73.52,.86,67.75,.94,74.49,.88,77.96,.52,68.46,.58,67.90,.34,70.43,.20,44.88,.21,32.56,.02,90.00
2016.11.10-13:00,.55,74.45,.67,75.70,.58,75.59,.80,71.74,.87,67.03,.92,75.43,.84,79.01,.51,65.46,.57,70.59,.33,71.26,.20,44.68,.20,33.16,.02,90.00
2016.11.10-14:00,.52,72.51,.64,75.37,.56,70.79,.81,70.35,.90,66.99,.92,76.53,.83,79.82,.53,63.18,.57,73.51,.32,71.84,.20,45.43,.20,34.63,.02,90.00
2016.11.10-15:00,.49,68.29,.61,71.81,.56,64.21,.83,69.60,.95,67.72,.94,77.90,.84,80.57,.57,62.31,.56,76.29,.32,71.69,.21,47.21,.21,37.29,.03,90.00
2016.11.10-16:00,.49,61.18,.59,65.79,.58,57.59,.86,69.71,1.00,69.40,.96,79.66,.86,81.46,.61,62.64,.56,78.31,.32,70.51,.23,49.40,.22,40.41,.03,90.00
2016.11.10-17:00,.55,55.35,.61,60.78,.64,53.78,.90,70.75,1.04,71.97,.97,81.59,.87,82.29,.66,63.45,.55,79.01,.33,68.56,.24,51.43,.23,43.11,.04,90.00
2016.11.10-18:00,.63,53.51,.67,58.54,.72,53.84,.93,72.45,1.07,74.97,.96,83.22,.86,82.75,.71,64.47,.55,78.54,.34,66.49,.25,52.91,.23,44.71,.04,90.00
2016.11.10-19:00,.71,54.20,.74,58.97,.81,56.51,.95,74.17,1.07,77.67,.92,83.92,.83,82.45,.74,65.74,.54,77.47,.36,64.93,.26,53.82,.23,45.00,.05,90.00
2016.11.10-20:00,.79,56.48,.81,61.58,.88,60.48,.96,75.44,1.05,79.70,.87,83.33,.78,81.16,.75,67.45,.52,76.39,.37,64.15,.26,54.17,.22,43.80,.04,90.00
2016.11.10-21:00,.85,61.13,.86,65.29,.92,64.76,.95,76.06,1.01,80.99,.81,81.55,.73,79.05,.75,69.92,.51,75.84,.38,64.03,.25,53.65,.21,40.52,.04,90.00
2016.11.10-22:00,.88,65.65,.88,69.21,.94,68.58,.94,75.76,.95,81.41,.75,78.72,.69,76.14,.73,73.00,.49,75.86,.38,64.61,.24,52.57,.20,35.60,.03,90.00
2016.11.10-23:00,.88,69.30,.89,73.30,.94,72.13,.92,75.10,.90,81.30,.71,75.45,.66,72.73,.70,76.38,.46,76.00,.38,65.71,.23,51.37,.19,30.37,.03,90.00
2016.11.10-24:00,.89,73.60,.89,76.70,.93,75.02,.91,74.36,.85,80.69,.69,72.16,.64,69.17,.65,79.80,.43,76.01,.36,67.31,.22,50.49,.18,26.56,.03,90.00
2016.11.11-01:00,.87,76.64,.86,78.78,.91,76.85,.89,73.62,.81,79.56,.69,69.10,.65,65.98,.61,82.90,.41,75.79,.35,69.31,.21,50.29,.19,25.19,.02,90.00
2016.11.11-02:00,.82,78.17,.82,79.43,.86,77.78,.88,73.11,.79,78.25,.71,66.74,.68,63.84,.59,84.99,.40,75.02,.35,71.27,.22,50.86,.20,26.09,.03,90.00
2016.11.11-03:00,.75,78.63,.75,78.70,.81,78.04,.87,73.24,.79,77.19,.75,65.37,.74,62.93,.57,85.36,.41,73.25,.35,72.61,.22,52.43,.21,29.03,.03,90.00
2016.11.11-04:00,.65,79.36,.70,76.71,.77,77.76,.87,74.19,.80,76.36,.81,64.97,.81,63.08,.57,83.87,.43,70.27,.35,73.13,.24,55.05,.23,33.52,.04,90.00
2016.11.11-05:00,.60,78.03,.65,73.82,.74,77.01,.88,75.56,.83,75.29,.88,65.29,.89,64.05,.56,81.08,.45,66.61,.37,73.10,.25,58.01,.24,38.10,.04,90.00
2016.11.11-06:00,.60,74.44,.64,71.22,.73,76.13,.90,76.80,.86,73.76,.95,66.18,.95,65.71,.56,77.74,.48,63.26,.38,72.98,.26,60.45,.26,41.36,.05,90.00
2016.11.11-07:00,.62,73.51,.66,69.65,.74,75.38,.91,77.44,.89,71.99,1.01,67.55,.99,67.89,.55,74.56,.51,61.24,.39,73.13,.27,61.78,.26,42.53,.05,90.00
2016.11.11-08:00,.63,75.92,.67,68.86,.74,74.62,.90,77.19,.92,70.26,1.03,69.16,1.00,70.24,.55,71.75,.54,60.78,.39,73.74,.26,61.98,.26,41.88,.04,90.00
2016.11.11-09:00,.63,80.44,.69,68.56,.74,73.79,.88,76.25,.93,68.97,1.04,71.02,.99,72.62,.54,69.31,.56,61.64,.39,74.79,.25,61.03,.25,39.83,.04,90.00
2016.11.11-10:00,.64,84.84,.69,68.33,.73,72.76,.86,74.88,.93,68.32,1.02,73.10,.97,75.01,.54,67.41,.58,63.57,.37,76.15,.23,58.95,.24,36.89,.03,90.00
2016.11.11-11:00,.66,88.05,.69,67.90,.72,71.40,.83,73.18,.92,68.12,.99,75.23,.92,77.30,.53,66.06,.58,66.22,.34,77.60,.21,56.05,.22,34.06,.03,90.00
2016.11.11-12:00,.66,89.24,.69,67.54,.70,69.71,.80,71.08,.91,68.00,.94,77.03,.87,79.20,.52,64.89,.57,69.37,.31,78.89,.19,53.06,.21,32.27,.02,90.00
2016.11.11-13:00,.65,89.38,.69,67.37,.70,67.85,.79,68.70,.90,67.83,.90,78.06,.83,80.30,.51,63.73,.56,73.02,.28,79.70,.18,50.52,.20,31.78,.02,90.00
2016.11.11-14:00,.61,88.09,.69,66.92,.70,65.95,.80,66.84,.92,68.02,.88,78.54,.80,80.75,.52,63.16,.55,77.19,.27,79.61,.17,48.63,.19,32.36,.02,90.00
2016.11.11-15:00,.55,83.14,.67,65.10,.70,63.71,.83,66.04,.94,68.91,.88,78.91,.79,80.91,.55,63.49,.54,81.31,.26,78.24,.18,47.94,.20,34.28,.02,90.00
2016.11.11-16:00,.54,70.66,.66,61.48,.72,61.19,.87,66.48,.99,70.75,.90,79.64,.81,81.16,.59,64.59,.53,84.44,.27,75.66,.20,48.74,.21,37.49,.03,90.00
2016.11.11-17:00,.57,60.60,.66,56.73,.74,58.87,.91,67.88,1.03,73.40,.92,80.79,.83,81.55,.65,65.90,.51,85.63,.28,72.34,.23,50.65,.23,41.30,.04,90.00
2016.11.11-18:00,.65,53.86,.70,52.41,.80,57.48,.95,69.71,1.06,76.37,.94,82.00,.85,81.79,.70,66.95,.50,84.47,.30,69.15,.26,52.87,.25,44.54,.04,90.00
2016.11.11-19:00,.75,51.46,.78,50.86,.87,57.98,.99,71.89,1.08,79.40,.93,82.98,.84,81.76,.74,67.90,.49,81.47,.33,66.89,.28,54.77,.26,46.27,.05,90.00
2016.11.11-20:00,.86,52.40,.87,52.16,.94,60.22,1.01,74.27,1.06,82.10,.90,83.31,.82,81.21,.77,69.03,.49,77.58,.35,65.78,.30,56.18,.26,46.26,.05,90.00
2016.11.11-21:00,.95,54.95,.96,54.88,1.00,63.09,1.02,76.38,1.02,83.95,.84,82.45,.77,79.78,.77,70.66,.48,73.92,.37,65.77,.30,57.27,.25,44.76,.05,90.00
2016.11.11-22:00,1.02,58.17,1.02,58.13,1.03,65.80,.99,77.74,.95,84.50,.78,80.04,.72,77.37,.76,73.17,.47,71.42,.37,66.63,.29,57.94,.24,41.63,.04,90.00
2016.11.11-23:00,1.06,61.84,1.06,61.67,1.04,68.08,.95,78.07,.87,83.51,.73,76.21,.67,74.23,.73,76.80,.46,70.53,.37,68.15,.27,58.12,.22,36.90,.04,90.00
2016.11.11-24:00,1.08,65.80,1.08,65.40,1.04,70.03,.91,77.37,.80,81.00,.70,71.68,.65,70.86,.69,81.41,.45,71.12,.35,70.07,.24,57.83,.20,31.29,.03,90.00
2016.11.12-01:00,1.09,69.66,1.09,68.95,1.03,71.66,.88,75.88,.76,77.30,.70,67.42,.65,67.77,.64,86.43,.43,72.73,.33,72.15,.22,57.44,.19,26.79,.03,90.00
2016.11.12-02:00,1.07,73.04,1.08,71.80,1.02,72.91,.85,73.89,.73,73.09,.71,64.17,.66,65.24,.59,90.82,.42,74.72,.31,74.17,.21,57.48,.19,25.22,.03,90.00
2016.11.12-03:00,1.01,75.88,1.04,73.81,.99,73.85,.82,71.88,.73,69.23,.75,62.36,.70,63.55,.55,93.10,.41,76.07,.31,75.87,.21,58.18,.20,26.72,.03,90.00
2016.11.12-04:00,.94,77.93,.99,75.02,.95,74.53,.81,70.27,.75,66.35,.80,62.04,.75,62.89,.52,92.19,.42,75.68,.31,77.06,.21,59.75,.22,30.63,.04,90.00
2016.11.12-05:00,.87,78.97,.93,75.52,.92,75.04,.82,69.44,.79,64.88,.87,63.14,.82,63.47,.50,88.35,.43,73.32,.32,77.49,.23,61.75,.23,35.62,.04,90.00
2016.11.12-06:00,.82,79.23,.89,75.49,.90,75.48,.85,69.48,.85,64.85,.94,65.39,.88,65.29,.50,83.08,.45,69.91,.34,77.11,.25,63.22,.25,39.83,.05,90.00
2016.11.12-07:00,.78,79.60,.86,75.16,.90,75.83,.89,69.96,.92,65.84,1.00,68.25,.94,67.98,.50,77.97,.48,66.97,.35,76.38,.26,63.64,.27,42.13,.05,90.00
2016.11.12-08:00,.74,79.92,.84,74.40,.90,75.76,.93,70.22,.98,67.11,1.05,71.05,.98,70.92,.51,73.75,.51,65.33,.36,75.93,.27,63.09,.27,42.45,.05,90.00
2016.11.12-09:00,.72,79.24,.84,72.99,.91,75.14,.95,70.03,1.02,68.33,1.06,73.53,.98,73.75,.51,70.39,.53,65.01,.35,76.17,.26,61.86,.27,41.24,.04,90.00
2016.11.12-10:00,.71,77.57,.84,71.00,.91,74.20,.97,69.59,1.04,69.46,1.04,75.70,.96,76.34,.51,67.48,.55,65.76,.34,77.20,.25,60.08,.26,38.94,.04,90.00
2016.11.12-11:00,.69,76.61,.84,68.72,.91,73.22,.97,69.11,1.03,70.56,1.01,77.70,.91,78.74,.51,65.04,.55,67.49,.31,78.81,.23,57.71,.24,35.82,.03,90.00
2016.11.12-12:00,.69,74.71,.86,66.57,.91,72.28,.97,68.66,1.02,71.61,.96,79.53,.86,80.99,.51,63.45,.55,70.33,.28,80.57,.20,54.79,.22,32.54,.02,90.00
2016.11.12-13:00,.71,73.08,.89,65.00,.90,71.31,.97,68.13,1.00,72.44,.91,80.83,.80,82.74,.51,62.57,.53,74.19,.25,81.73,.18,51.94,.21,30.36,.02,90.00
2016.11.12-14:00,.73,72.25,.91,64.32,.89,70.30,.98,67.70,.98,72.97,.86,81.19,.75,83.30,.51,61.91,.51,78.74,.23,81.52,.17,50.50,.19,30.82,.02,90.00
2016.11.12-15:00,.77,71.02,.93,64.23,.88,69.09,.99,67.74,.96,73.32,.82,80.57,.71,82.30,.52,61.25,.49,83.38,.22,79.60,.18,51.22,.19,34.17,.02,90.00
2016.11.12-16:00,.82,69.81,.94,64.24,.87,67.59,1.01,68.72,.97,74.07,.81,79.71,.70,80.47,.55,61.22,.47,87.21,.22,76.40,.19,53.06,.20,38.55,.02,90.00
2016.11.12-17:00,.86,68.83,.96,63.98,.89,65.96,1.05,70.78,.99,75.70,.82,79.45,.73,79.06,.60,62.29,.46,89.07,.24,72.80,.22,54.95,.21,42.24,.03,90.00
2016.11.12-18:00,.92,67.68,1.00,63.55,.94,64.48,1.10,73.52,1.02,78.00,.85,79.81,.76,78.42,.67,63.90,.45,88.05,.27,69.66,.25,56.65,.23,44.81,.04,90.00
2016.11.12-19:00,.98,67.43,1.06,63.55,1.01,63.67,1.14,76.51,1.04,80.54,.86,80.31,.79,78.24,.72,65.51,.44,84.11,.30,67.34,.28,58.27,.25,46.47,.05,90.00
2016.11.12-20:00,1.05,68.49,1.13,64.49,1.09,63.94,1.18,79.52,1.05,82.94,.87,80.53,.80,78.17,.76,67.29,.44,78.22,.33,65.75,.30,59.63,.27,47.11,.05,90.00
2016.11.12-21:00,1.12,70.25,1.19,66.44,1.17,65.18,1.18,82.18,1.03,84.67,.85,79.95,.80,77.84,.79,69.51,.44,72.02,.35,64.93,.31,60.66,.27,46.52,.06,90.00
2016.11.12-22:00,1.17,72.33,1.23,69.21,1.24,66.90,1.15,83.99,.98,85.22,.81,78.07,.77,76.82,.79,72.33,.45,67.11,.37,64.99,.31,61.39,.26,44.45,.05,90.00
2016.11.12-23:00,1.21,74.79,1.26,72.54,1.28,68.84,1.10,84.63,.91,84.16,.77,74.64,.73,74.82,.77,75.96,.46,64.33,.36,65.98,.29,61.76,.24,40.61,.05,90.00
2016.11.12-24:00,1.23,77.53,1.27,76.04,1.30,70.96,1.03,84.10,.84,81.25,.75,70.09,.70,71.98,.73,80.62,.45,63.85,.35,67.81,.26,61.74,.22,34.90,.04,90.00
2016.11.13-01:00,1.23,80.08,1.26,79.15,1.32,73.17,.97,82.58,.79,76.71,.74,65.59,.68,68.87,.68,86.12,.45,65.18,.33,70.17,.22,61.21,.20,28.01,.03,90.00
2016.11.13-02:00,1.21,82.16,1.23,81.65,1.32,75.43,.92,80.48,.77,71.66,.77,62.35,.69,66.16,.62,91.55,.43,67.49,.30,72.86,.19,60.43,.18,22.38,.03,90.00
2016.11.13-03:00,1.15,83.82,1.18,83.73,1.30,77.81,.89,78.25,.78,67.45,.81,60.92,.71,64.32,.56,95.43,.42,69.94,.28,75.65,.17,59.77,.18,20.61,.02,90.00
2016.11.13-04:00,1.08,85.04,1.11,85.40,1.26,80.24,.87,76.19,.81,64.79,.87,61.33,.75,63.76,.50,96.16,.42,71.84,.28,78.12,.17,59.43,.19,22.93,.03,90.00
2016.11.13-05:00,.99,85.68,1.03,86.47,1.21,82.56,.86,74.58,.86,63.82,.93,63.30,.81,64.61,.46,92.76,.43,72.66,.28,79.65,.18,59.69,.21,28.04,.03,90.00
2016.11.13-06:00,.92,85.45,.96,86.59,1.16,84.48,.88,73.53,.92,64.25,.99,66.29,.87,66.51,.44,85.69,.45,72.11,.29,79.72,.21,60.44,.24,34.18,.04,90.00
2016.11.13-07:00,.88,84.12,.91,85.45,1.13,85.70,.91,72.88,.99,65.71,1.04,69.81,.92,69.03,.44,77.03,.47,70.59,.30,78.63,.23,61.34,.26,39.74,.04,90.00
2016.11.13-08:00,.86,81.65,.89,82.98,1.10,85.89,.95,72.27,1.05,67.77,1.08,73.39,.96,71.83,.46,69.32,.50,68.95,.31,77.18,.26,62.07,.28,43.71,.05,90.00
2016.11.13-09:00,.87,78.53,.90,79.71,1.08,85.11,.99,71.46,1.11,69.96,1.09,76.65,.97,74.65,.49,63.96,.52,67.84,.32,76.02,.27,62.45,.29,45.87,.05,90.00
2016.11.13-10:00,.88,75.35,.92,76.47,1.06,83.70,1.03,70.52,1.14,72.01,1.07,79.43,.95,77.30,.52,60.82,.54,67.52,.31,75.59,.26,62.55,.28,46.32,.04,90.00
2016.11.13-11:00,.87,71.96,.95,73.91,1.04,81.95,1.05,69.56,1.14,73.85,1.03,81.73,.91,79.68,.54,59.29,.54,68.18,.29,75.95,.24,62.25,.25,45.01,.03,90.00
2016.11.13-12:00,.88,69.32,.99,72.33,1.01,80.00,1.06,68.78,1.12,75.60,.97,83.62,.85,81.85,.56,59.19,.54,70.21,.26,76.78,.21,61.22,.22,41.68,.02,90.00
2016.11.13-13:00,.90,68.09,1.02,71.74,.99,77.91,1.08,68.29,1.09,77.16,.90,84.90,.80,83.57,.56,60.25,.53,73.86,.23,77.45,.18,59.18,.19,36.52,.01,90.00
2016.11.13-14:00,.92,68.42,1.04,72.13,.97,75.91,1.10,68.18,1.06,78.30,.84,85.08,.74,84.16,.56,61.95,.51,79.02,.21,77.16,.16,56.38,.16,31.05,.01,90.00
2016.11.13-15:00,.93,70.32,1.03,73.35,.96,74.17,1.12,68.64,1.03,78.89,.80,83.72,.71,82.90,.56,63.65,.49,85.04,.19,75.51,.15,54.04,.15,28.03,.01,90.00
2016.11.13-16:00,.96,73.23,1.01,74.72,.94,72.55,1.14,69.75,1.02,79.04,.77,81.04,.70,79.95,.57,64.86,.46,90.65,.20,73.18,.15,53.82,.15,29.55,.01,90.00
2016.11.13-17:00,.95,74.84,.99,75.40,.95,70.88,1.17,71.58,1.02,79.20,.78,77.97,.71,76.48,.60,65.45,.43,94.08,.22,71.24,.18,55.65,.16,34.69,.02,90.00
2016.11.13-18:00,.96,74.94,.99,75.05,.98,69.45,1.21,74.14,1.04,79.88,.80,75.53,.75,73.92,.64,65.86,.40,93.49,.25,69.85,.21,57.87,.19,39.95,.03,90.00
2016.11.13-19:00,.99,74.15,1.02,74.06,1.05,68.69,1.25,77.18,1.06,81.32,.85,74.24,.81,72.80,.70,66.48,.37,87.79,.28,68.52,.25,59.73,.23,43.67,.04,90.00
2016.11.13-20:00,1.04,73.54,1.07,73.40,1.13,68.92,1.28,80.39,1.08,83.31,.88,73.90,.85,72.88,.75,67.46,.37,78.13,.31,66.93,.29,61.17,.26,45.85,.05,90.00
2016.11.13-21:00,1.11,73.79,1.14,73.63,1.21,69.94,1.28,83.27,1.07,85.14,.91,73.87,.88,73.45,.79,68.88,.39,67.97,.34,65.30,.31,62.44,.28,46.86,.06,90.00
2016.11.13-22:00,1.17,74.88,1.20,74.72,1.27,71.23,1.25,85.25,1.03,86.02,.92,73.45,.88,73.84,.81,70.81,.43,60.46,.35,64.03,.32,63.58,.28,46.73,.06,90.00
2016.11.13-23:00,1.20,76.65,1.24,76.50,1.31,72.60,1.20,85.98,.97,85.34,.91,72.33,.86,73.72,.81,73.57,.47,56.69,.36,63.50,.30,64.41,.27,44.87,.06,90.00
2016.11.13-24:00,1.21,78.79,1.25,78.74,1.32,74.08,1.12,85.34,.89,82.77,.90,70.62,.84,73.04,.78,77.35,.49,56.24,.35,63.94,.27,64.88,.24,40.69,.05,90.00
2016.11.14-01:00,1.20,81.05,1.24,81.11,1.32,75.89,1.06,83.71,.84,78.52,.90,68.88,.81,72.10,.74,82.09,.50,58.04,.32,65.19,.23,64.82,.21,33.70,.03,90.00
2016.11.14-02:00,1.17,83.35,1.21,83.53,1.31,78.15,1.01,81.79,.81,73.67,.90,67.81,.79,71.31,.68,87.31,.49,61.07,.30,67.16,.18,64.14,.18,24.81,.02,90.00
2016.11.14-03:00,1.12,85.50,1.16,85.91,1.27,80.68,.97,79.86,.81,69.24,.92,67.51,.79,70.72,.62,92.01,.48,64.61,.27,69.94,.15,62.95,.17,17.79,.01,90.00
2016.11.14-04:00,1.04,87.33,1.08,88.10,1.21,83.20,.94,77.81,.84,65.68,.95,67.81,.80,70.31,.55,95.06,.47,68.35,.26,73.45,.13,61.57,.17,16.47,.01,90.00
2016.11.14-05:00,.97,88.60,.99,89.84,1.13,85.39,.92,75.69,.87,63.22,.97,68.60,.82,70.17,.48,95.07,.46,71.80,.26,76.93,.14,60.84,.19,21.32,.01,90.00
2016.11.14-06:00,.90,89.14,.92,90.98,1.07,87.14,.93,74.05,.93,62.40,1.01,70.07,.85,70.62,.44,90.79,.45,74.07,.27,79.18,.17,60.96,.21,29.18,.02,90.00
2016.11.14-07:00,.86,88.62,.88,91.38,1.03,88.33,.96,73.34,1.00,63.40,1.05,72.27,.89,71.77,.42,82.36,.46,74.39,.27,79.58,.20,61.39,.24,36.83,.03,90.00
2016.11.14-08:00,.81,85.39,.85,90.84,1.00,88.76,.99,73.30,1.07,65.68,1.08,74.94,.93,73.42,.44,72.85,.48,73.07,.28,78.50,.22,61.93,.26,42.95,.04,90.00
2016.11.14-09:00,.81,81.77,.85,89.40,.98,88.41,1.03,73.39,1.13,68.45,1.10,77.67,.95,75.29,.49,65.51,.50,71.21,.29,76.69,.24,62.33,.28,47.22,.04,90.00
2016.11.14-10:00,.87,75.23,.85,87.34,.96,87.35,1.06,73.24,1.17,71.13,1.10,80.21,.95,77.24,.54,61.29,.52,69.89,.28,74.64,.25,62.31,.27,49.59,.04,90.00
2016.11.14-11:00,.92,70.10,.86,85.14,.94,85.59,1.08,72.69,1.18,73.40,1.07,82.46,.94,79.27,.58,59.88,.53,69.86,.27,72.66,.23,61.72,.25,50.08,.04,90.00
2016.11.14-12:00,.99,65.88,.85,83.10,.90,83.09,1.09,71.83,1.17,75.22,1.02,84.51,.90,81.49,.61,60.75,.53,71.47,.24,70.71,.21,60.20,.22,48.15,.03,90.00
2016.11.14-13:00,1.06,63.95,.85,81.42,.87,80.07,1.11,70.96,1.15,76.74,.97,86.26,.85,83.69,.62,63.24,.53,74.63,.21,68.41,.18,57.54,.17,43.14,.02,90.00
2016.11.14-14:00,1.13,64.95,.84,80.68,.86,77.31,1.13,70.48,1.12,78.11,.91,87.37,.80,85.27,.61,66.39,.51,78.86,.19,65.72,.14,53.96,.13,34.09,.01,90.00
2016.11.14-15:00,1.13,68.72,.82,80.82,.86,75.24,1.15,70.57,1.09,79.14,.85,87.27,.75,85.43,.59,69.33,.48,83.70,.17,63.45,.12,50.83,.11,22.72,.00,270.00
2016.11.14-16:00,1.08,72.93,.80,81.37,.86,74.04,1.17,71.42,1.07,79.80,.80,85.59,.71,83.51,.56,71.37,.44,88.83,.18,63.07,.12,50.47,.10,15.68,.00,270.00
2016.11.14-17:00,1.05,75.29,.78,81.69,.87,73.64,1.20,73.15,1.06,80.33,.78,82.61,.69,79.67,.54,71.77,.39,92.90,.19,64.45,.14,53.52,.11,18.47,.00,90.00
2016.11.14-18:00,1.02,76.79,.76,80.91,.90,73.65,1.23,75.66,1.07,81.07,.78,79.21,.70,75.16,.55,70.44,.35,93.57,.22,66.13,.18,57.79,.14,27.23,.02,90.00
2016.11.14-19:00,1.03,77.12,.78,78.96,.94,73.90,1.26,78.71,1.09,82.28,.81,76.43,.74,71.62,.58,68.53,.33,88.54,.26,66.87,.22,61.23,.18,35.10,.03,90.00
2016.11.14-20:00,1.06,77.06,.84,77.23,1.00,74.54,1.28,81.88,1.11,83.96,.85,74.65,.80,69.71,.64,67.17,.33,78.22,.29,66.35,.26,63.70,.23,40.42,.04,90.00
2016.11.14-21:00,1.11,77.38,.93,77.06,1.07,75.67,1.29,84.73,1.12,85.77,.89,73.54,.86,69.05,.71,66.81,.36,67.12,.31,64.95,.29,65.57,.26,43.60,.05,90.00
2016.11.14-22:00,1.17,78.31,1.01,78.45,1.12,77.11,1.26,86.83,1.09,87.05,.92,72.42,.91,68.90,.77,67.40,.42,59.17,.33,63.27,.30,67.04,.28,45.07,.06,90.00
2016.11.14-23:00,1.20,79.58,1.05,80.76,1.14,78.55,1.20,87.83,1.04,87.12,.93,70.87,.93,68.78,.81,68.99,.47,55.15,.34,61.98,.29,68.16,.28,44.85,.06,90.00
2016.11.14-24:00,1.19,80.84,1.07,83.33,1.14,79.83,1.12,87.41,.96,85.43,.93,68.88,.93,68.71,.81,71.86,.51,54.41,.33,61.49,.26,68.78,.26,42.52,.05,90.00
2016.11.15-01:00,1.17,81.90,1.05,85.44,1.11,81.01,1.04,85.49,.89,81.75,.93,66.92,.92,68.95,.79,76.04,.53,55.93,.32,61.78,.22,68.67,.23,37.60,.04,90.00
2016.11.15-02:00,1.16,83.14,1.02,87.12,1.08,82.46,.99,82.69,.85,76.87,.94,65.93,.90,69.95,.75,81.19,.54,58.63,.29,62.60,.16,67.15,.19,29.83,.02,90.00
2016.11.15-03:00,1.14,85.26,.99,89.21,1.05,84.48,.96,79.97,.84,72.21,.96,66.27,.89,71.60,.68,86.46,.52,61.62,.26,63.77,.12,63.02,.17,21.34,.01,90.00
2016.11.15-04:00,1.12,88.17,.94,92.10,1.00,86.88,.94,77.67,.86,68.61,.99,67.56,.87,73.33,.60,90.82,.50,64.56,.23,65.45,.09,56.14,.15,16.82,.00,90.00
2016.11.15-05:00,1.06,91.66,.87,95.56,.93,89.22,.94,75.74,.89,66.26,1.01,69.21,.86,74.66,.52,93.22,.48,67.81,.22,67.76,.09,49.78,.15,18.87,.00,90.00
2016.11.15-06:00,.95,95.64,.78,98.71,.85,90.74,.94,73.90,.93,64.78,1.03,70.62,.87,75.25,.46,92.32,.47,71.60,.22,70.73,.11,48.10,.17,25.75,.01,90.00
2016.11.15-07:00,.78,99.75,.68,100.63,.76,90.90,.96,72.51,.99,64.27,1.06,71.88,.88,75.41,.43,87.30,.47,75.01,.24,73.28,.14,49.55,.19,33.68,.01,90.00
2016.11.15-08:00,.65,102.12,.60,100.40,.71,89.52,1.00,72.26,1.05,65.13,1.10,73.57,.91,75.71,.43,79.32,.48,76.63,.25,74.30,.18,51.85,.22,40.38,.02,90.00
2016.11.15-09:00,.53,114.69,.56,97.32,.70,86.92,1.05,73.07,1.12,67.16,1.14,75.86,.94,76.34,.46,71.14,.49,75.85,.26,73.61,.21,54.43,.24,45.73,.03,90.00
2016.11.15-10:00,.46,123.68,.55,91.99,.72,84.13,1.09,74.38,1.17,69.83,1.15,78.57,.96,77.31,.51,65.10,.50,73.55,.26,71.49,.23,56.67,.25,49.53,.04,90.00
2016.11.15-11:00,.42,122.52,.55,85.18,.74,81.37,1.12,75.47,1.20,72.41,1.14,81.32,.95,78.53,.56,62.09,.50,71.39,.25,68.61,.23,58.29,.24,51.51,.04,90.00
2016.11.15-12:00,.39,113.44,.56,77.32,.76,78.23,1.12,75.88,1.20,74.45,1.10,83.83,.92,80.03,.59,62.03,.51,70.69,.23,65.47,.22,59.07,.21,50.93,.03,90.00
2016.11.15-13:00,.37,103.18,.57,69.27,.76,74.65,1.12,75.55,1.18,75.78,1.04,85.89,.87,81.66,.61,64.08,.51,71.73,.21,62.20,.19,58.91,.17,46.58,.02,90.00
2016.11.15-14:00,.36,91.05,.59,62.86,.78,71.35,1.12,74.76,1.15,76.48,.97,87.11,.82,82.85,.60,66.89,.49,74.03,.19,59.04,.15,58.41,.12,36.77,.01,90.00
2016.11.15-15:00,.41,78.80,.63,59.94,.81,69.57,1.13,74.06,1.14,77.01,.90,87.35,.77,83.17,.58,69.49,.47,77.17,.17,56.10,.12,57.99,.09,19.77,.00,270.00
2016.11.15-16:00,.48,72.31,.68,59.63,.84,69.23,1.14,73.83,1.12,77.55,.84,86.44,.72,82.24,.55,71.25,.43,80.89,.16,54.26,.10,58.87,.08,3.95,.01,270.00